Weather History for KCRG - July, 2013

Change the Weather History Date:

Tuesday, July 30, 2013

  Actual Average (WUND) Record (WUND)
Temperature  
Mean Temperature 84 °F -  
Max Temperature 91 °F - - (-1)
Min Temperature 77 °F - - (-1)
Cooling Degree Days 18    
Growing Degree Days 34 (Base 50)    
Moisture  
Dew Point 74 °F    
Average Humidity 74    
Maximum Humidity 88    
Minimum Humidity 57    
Precipitation  
Precipitation 0.03 in - - ()
Sea Level Pressure  
Sea Level Pressure 30.15 in    
Wind  
Wind Speed 3 mph (South)    
Max Wind Speed 10 mph    
Max Gust Speed -    
Visibility 10 miles    
Events Rain , Thunderstorm    
Averages and records for this station are not official NWS values.
T = Trace of Precipitation, MM = Missing Value Source: NWS Daily Summary

Daily Weather History Graph

Daily Weather History Graph

Search for Another Location

Airport or City:

Trip Planner

Search our weather history database for the weather conditions in past years. The results will help you decide how hot, cold, wet, or windy it might be!

Date:

Astronomy

Jul. 30, 2013 Rise Set
Actual Time 6:43 AM EDT 8:21 PM EDT
Civil Twilight 6:17 AM EDT 8:47 PM EDT
Nautical Twilight 5:45 AM EDT 9:18 PM EDT
Astronomical Twilight 5:12 AM EDT 9:51 PM EDT
Moon 12:56 AM EDT (7/30) 2:41 PM EDT (7/30)
Length of Visible Light 14h 30m
Length of Day
13h 37m
Last Quarter, 41% of the Moon is Illuminated
Jul 30
Last Quarter
Aug 6
New
Aug 14
First Quarter
Aug 20
Full
Aug 28
Last Quarter

Hourly Weather History & Observations

Time (EDT) Temp. Heat Index Dew Point Humidity Pressure Visibility Wind Dir Wind Speed Gust Speed Precip Events Conditions
12:53 AM 81.0 °F 86.2 °F 73.9 °F 79% 30.16 in 10.0 mi South 4.6 mph - N/A   Partly Cloudy
1:53 AM 81.0 °F 86.2 °F 73.9 °F 79% 30.15 in 10.0 mi Calm Calm - N/A   Clear
2:53 AM 78.1 °F - 73.9 °F 87% 30.14 in 10.0 mi Calm Calm - N/A   Clear
3:53 AM 79.0 °F - 73.9 °F 84% 30.13 in 10.0 mi Calm Calm - N/A   Scattered Clouds
4:53 AM 79.0 °F - 73.9 °F 84% 30.13 in 10.0 mi SW 3.5 mph - N/A   Clear
5:53 AM 78.1 °F - 73.0 °F 84% 30.14 in 10.0 mi Calm Calm - N/A   Clear
6:53 AM 77.0 °F - 73.0 °F 88% 30.15 in 10.0 mi Calm Calm - N/A   Clear
7:53 AM 81.0 °F 86.2 °F 73.9 °F 79% 30.16 in 10.0 mi Calm Calm - N/A   Clear
8:53 AM 84.0 °F 91.2 °F 73.9 °F 72% 30.18 in 10.0 mi North 3.5 mph - N/A   Clear
9:53 AM 87.1 °F 94.5 °F 73.0 °F 63% 30.18 in 10.0 mi North 4.6 mph - N/A   Clear
10:53 AM 88.0 °F 96.5 °F 73.9 °F 63% 30.18 in 10.0 mi Calm Calm - N/A   Clear
11:53 AM 90.0 °F 97.9 °F 73.0 °F 57% 30.17 in 10.0 mi Calm Calm - N/A   Mostly Cloudy
12:53 PM 90.0 °F 101.3 °F 75.9 °F 63% 30.16 in 10.0 mi East 6.9 mph - N/A   Mostly Cloudy
1:53 PM 88.0 °F 101.3 °F 78.1 °F 72% 30.15 in 10.0 mi SE 8.1 mph - 0.03 in   Partly Cloudy
2:41 PM 87.8 °F 97.6 °F 75.2 °F 66% 30.15 in 10.0 mi ENE 4.6 mph - 0.00 in Rain , Thunderstorm Light Thunderstorms and Rain
2:53 PM 84.9 °F 92.1 °F 73.9 °F 69% 30.15 in 10.0 mi SW 10.4 mph - 0.00 in Thunderstorm Thunderstorm
3:53 PM 82.9 °F 88.0 °F 72.0 °F 69% 30.13 in 10.0 mi Variable 4.6 mph - N/A Thunderstorm Thunderstorm
4:01 PM 82.4 °F 87.2 °F 71.6 °F 70% 30.13 in 10.0 mi South 4.6 mph - N/A   Clear
4:53 PM 84.9 °F 93.3 °F 75.0 °F 72% 30.12 in 10.0 mi SSE 3.5 mph - N/A   Clear
5:53 PM 84.9 °F 93.3 °F 75.0 °F 72% 30.12 in 10.0 mi SSW 4.6 mph - N/A   Clear
6:53 PM 84.9 °F 91.4 °F 73.0 °F 67% 30.12 in 10.0 mi South 3.5 mph - N/A   Clear
7:53 PM 82.9 °F 88.8 °F 73.0 °F 72% 30.13 in 10.0 mi South 4.6 mph - N/A   Clear
8:53 PM 81.0 °F 85.8 °F 73.0 °F 77% 30.13 in 10.0 mi SSE 4.6 mph - N/A   Clear
9:53 PM 81.0 °F 86.2 °F 73.9 °F 79% 30.15 in 10.0 mi South 3.5 mph - N/A   Clear
10:53 PM 81.0 °F 86.2 °F 73.9 °F 79% 30.15 in 10.0 mi South 3.5 mph - N/A   Clear
11:53 PM 80.1 °F 84.5 °F 73.9 °F 81% 30.14 in 10.0 mi South 4.6 mph - N/A   Clear